Погода в Волчанке

Россия / Ульяновская область     53°00′29″N   48°09′02″E
темп.,
°C
ветер,
м/с
пор.,
м/с
влажн.,
%
обл.,
%
осадки,
мм/ч
давл.,
гПа
погр.,
м
12 мая, ср
ср1201:00+13ссз2285100 0.0 102562
04:00+13с2287100 0.3 102440
07:00+14всв31277100 0.0 1025590
10:00+14всв41173100 0.1 1025317
13:00+16вюв51163100 0.0 1025467
16:00+16всв397599 2.4 1025361
19:00+17вюв51171100 0.0 1024458
22:00+15в388158 0.0 1024163
13 мая, чт
чт1301:00+13в237974 0.0 102425
04:00+13всв31174100 0.0 1023232
07:00+13в31169100 0.0 1023252
10:00+16вюв486894 0.2 1023274
13:00+19вюв71467100 0.0 1022753
16:00+23ююв81344100 0.0 10211278
19:00+21ююв71351100 0.1 1020461
22:00+16юв4127686 1.6 1021248
14 мая, пт
пт1401:00+15юв33721 1.2 102141
04:00+13юв22735 1.2 102215
07:00+16ююв2770100 0.0 1022185
10:00+21ююв595191 0.1 1022384
13:00+25ююв7103561 0.2 1022977
16:00+26ююв7113718 0.2 10211384
19:00+22ююв5124984 0.0 1021302
22:00+18ююв4105860 0.0 1021160
15 мая, сб
сб1501:00+16ю3456100 0.0 102149
04:00+15ю3355100 0.0 102137
07:00+17ю365611 0.0 1021146
10:00+23ю58385 0.0 1021429
13:00+26ю69305 0.0 10211024
16:00+28ю69265 0.0 10202057
19:00+24ююв23420 0.0 101935
22:00+19ююв33500 0.0 101917
16 мая, вс
вс1601:00+18ююв33565 0.0 101825
04:00+17ююв345966 0.0 101854
07:00+19ююв376210 0.0 1018154
10:00+24ю584417 0.0 1018475
13:00+27ю69357 0.0 10181313
16:00+28ююз6828100 0.0 10172289
19:00+24юз2248100 0.0 101729
22:00+21ю11467 0.0 101711